Weather History for Phoenix, AZ

Change the Weather History Date:

Friday, June 28, 2013

  Actual Average Record
Temperature  
Mean Temperature 99 °F 94 °F  
Max Temperature 116 °F 106 °F 118 °F (1990)
Min Temperature 82 °F 81 °F 59 °F (1965)
Degree Days  
Heating Degree Days 0 0  
Month to date heating degree days 0 0  
Since 1 June heating degree days 0 0  
Since 1 July heating degree days 881 935  
Cooling Degree Days 34 29  
Month to date cooling degree days 824 716  
Year to date cooling degree days 1922 1602  
Since 1 June cooling degree days 824 716  
Growing Degree Days 49 (Base 50)    
Moisture  
Dew Point 41 °F    
Average Humidity 16    
Maximum Humidity 23    
Minimum Humidity 8    
Precipitation  
Precipitation 0.00 in 0.01 in 0.26 in (1938)
Month to date precipitation 0.00 0.02  
Year to date precipitation 2.61 3.23  
Snow  
Snow 0.00 in - - ()
Month to date snowfall 0.0  
Year to date snowfall 0.0  
Since 1 July snowfall 0.0  
Snow Depth 0.00 in    
Sea Level Pressure  
Sea Level Pressure 29.73 in    
Wind  
Wind Speed 6 mph (ESE)    
Max Wind Speed 14 mph    
Max Gust Speed 20 mph    
Visibility 10 miles    
Events      
T = Trace of Precipitation, MM = Missing Value Source: NWS Daily Summary

Daily Weather History Graph

Daily Weather History Graph

Search for Another Location

Airport:

Trip Planner

Search our weather history database for the weather conditions in past years. The results will help you decide how hot, cold, wet, or windy it might be!

Date:

Astronomy

Jun. 28, 2013 Rise Set
Actual Time 5:20 AM MST 7:41 PM MST
Civil Twilight 4:51 AM MST 8:10 PM MST
Nautical Twilight 4:16 AM MST 8:46 PM MST
Astronomical Twilight 3:37 AM MST 9:24 PM MST
Moon 11:33 PM MST (6/28) 11:13 AM MST (6/28)
Length of Visible Light 15h 18m
Length of Day
14h 20m
Waning Gibbous, 65% of the Moon is Illuminated
Jun 28
Waning Gibbous
Jun 29
Last Quarter
Jul 8
New
Jul 15
First Quarter
Jul 22
Full

Hourly Weather History & Observations

Time (MST) Temp. Dew Point Humidity Pressure Visibility Wind Dir Wind Speed Gust Speed Precip Events Conditions
12:51 AM 91.9 °F 34.0 °F 13% 29.79 in 10.0 mi Calm Calm - N/A   Clear
1:51 AM 90.0 °F 37.9 °F 16% 29.78 in 10.0 mi ESE 3.5 mph - N/A   Clear
2:51 AM 88.0 °F 43.0 °F 21% 29.78 in 10.0 mi East 6.9 mph - N/A   Clear
3:51 AM 86.0 °F 43.0 °F 22% 29.78 in 10.0 mi East 5.8 mph - N/A   Clear
4:51 AM 84.9 °F 42.1 °F 22% 29.78 in 10.0 mi East 5.8 mph - N/A   Scattered Clouds
5:51 AM 84.0 °F 39.0 °F 20% 29.80 in 10.0 mi ESE 5.8 mph - N/A   Scattered Clouds
6:51 AM 86.0 °F 39.0 °F 19% 29.81 in 10.0 mi East 5.8 mph - N/A   Partly Cloudy
7:51 AM 91.0 °F 39.9 °F 17% 29.81 in 10.0 mi East 4.6 mph - N/A   Partly Cloudy
8:51 AM 95.0 °F 42.1 °F 16% 29.81 in 10.0 mi Calm Calm - N/A   Partly Cloudy
9:51 AM 99.0 °F 37.0 °F 12% 29.80 in 10.0 mi WSW 4.6 mph - N/A   Partly Cloudy
10:51 AM 102.2 °F 37.4 °F 11% 29.79 in 10.0 mi Variable 4.6 mph - N/A   Scattered Clouds
11:51 AM 106.0 °F 42.1 °F 11% 29.76 in 10.0 mi WNW 8.1 mph - N/A   Scattered Clouds
12:51 PM 109.9 °F 42.1 °F 10% 29.74 in 10.0 mi WNW 10.4 mph - N/A   Scattered Clouds
1:51 PM 113.0 °F 42.1 °F 9% 29.71 in 10.0 mi WNW 11.5 mph - N/A   Mostly Cloudy
2:51 PM 114.1 °F 39.0 °F 8% 29.68 in 10.0 mi Calm Calm - N/A   Mostly Cloudy
3:51 PM 116.1 °F 41.0 °F 8% 29.66 in 10.0 mi Variable 6.9 mph - N/A   Mostly Cloudy
4:51 PM 114.1 °F 39.0 °F 8% 29.64 in 10.0 mi Variable 3.5 mph - N/A   Mostly Cloudy
5:51 PM 114.1 °F 39.0 °F 8% 29.63 in 10.0 mi Variable 3.5 mph - N/A   Mostly Cloudy
6:51 PM 113.0 °F 42.1 °F 9% 29.63 in 10.0 mi SSE 9.2 mph - N/A   Mostly Cloudy
7:51 PM 109.0 °F 43.0 °F 11% 29.65 in 10.0 mi SE 8.1 mph - N/A   Mostly Cloudy
8:51 PM 107.1 °F 45.0 °F 12% 29.66 in 10.0 mi SE 8.1 mph - N/A   Mostly Cloudy
9:51 PM 105.1 °F 43.0 °F 12% 29.67 in 10.0 mi SSE 5.8 mph - N/A   Partly Cloudy
10:51 PM 102.0 °F 46.0 °F 15% 29.67 in 10.0 mi East 6.9 mph - N/A   Partly Cloudy
11:51 PM 99.0 °F 48.0 °F 18% 29.66 in 10.0 mi East 10.4 mph - N/A   Scattered Clouds